Location: Hengforden
(52.3167°N, 6.1333°E)
Time: 16:17:19
(UTC+00:00)

NOSS 2-1 (C) - Pass Details

Date: 14 June 2025
Orbit: 377 x 1697 km, 63.3° (Epoch: 20 July)

Event Time Altitude Azimuth Distance (km) Brightness Sun altitude
Rises 22:28:48 0° 316° (NW) 2,309 7.7 -13.0°
Reaches altitude 10° 22:30:45 10° 324° (NW) 1,511 6.8 -13.0°
Maximum altitude 22:33:52 42° 38° (NE) 699 4.2 -13.2°
Drops below altitude 10° 22:37:46 10° 110° (ESE) 1,897 5.7 -13.3°
Enters shadow 22:38:38 - 113° (ESE) 2,253 6.1 -13.3°
